| time (UTC) | temp F | wind direction | speed MPH | gust MPH | rain 1hr in | rain 24hr in | rain mn in | humidity % | barometer mb |
| 20260504081549 | 46 | 0 | 0.0 | 1.0 | 0.00 | 0.00 | 0.00 | 74 | 1014.5 |
| 20260504044546 | 49 | 239 | 0.0 | 4.0 | 0.00 | 0.00 | 0.00 | 59 | 1014.3 |
| 20260504043053 | 48 | 0 | 0.0 | 3.0 | 0.00 | 0.00 | 0.00 | 58 | 1014.1 |
| 20260504041546 | 48 | 0 | 0.0 | 5.0 | 0.00 | 0.00 | 0.00 | 58 | 1014.0 |
| 20260504040049 | 48 | 244 | 0.0 | 4.0 | 0.00 | 0.00 | 0.00 | 60 | 1014.0 |
| 20260504034553 | 48 | 0 | 1.0 | 3.0 | 0.00 | 0.00 | 0.00 | 60 | 1013.8 |
| 20260504033046 | 48 | 269 | 0.0 | 4.0 | 0.00 | 0.00 | 0.00 | 62 | 1013.8 |
| 20260504031546 | 48 | 250 | 0.0 | 3.0 | 0.00 | 0.00 | 0.00 | 64 | 1013.7 |
| 20260504030045 | 48 | 260 | 0.0 | 2.0 | 0.00 | 0.00 | 0.00 | 63 | 1013.8 |
| 20260504024551 | 48 | 0 | 0.0 | 3.0 | 0.00 | 0.00 | 0.00 | 63 | 1013.8 |
| 20260504023045 | 48 | 0 | 0.0 | 2.0 | 0.00 | 0.00 | 0.00 | 62 | 1013.8 |
| 20260504021551 | 48 | 0 | 1.0 | 3.0 | 0.00 | 0.00 | 0.00 | 63 | 1013.7 |
| 20260504020044 | 48 | 273 | 0.0 | 3.0 | 0.00 | 0.00 | 0.00 | 63 | 1013.7 |
| 20260504014548 | 48 | 0 | 0.0 | 4.0 | 0.00 | 0.00 | 0.00 | 62 | 1013.6 |
| 20260504013108 | 49 | 0 | 0.0 | 2.0 | 0.00 | 0.00 | 0.00 | 61 | 1013.5 |
| 20260504011545 | 50 | 243 | 0.0 | 1.0 | 0.00 | 0.00 | 0.00 | 59 | 1013.4 |
| 20260504010046 | 51 | 0 | 0.0 | 1.0 | 0.00 | 0.00 | 0.00 | 57 | 1013.2 |
| 20260504004550 | 52 | 0 | 0.0 | 0.0 | 0.00 | 0.00 | 0.00 | 53 | 1013.0 |
| 20260504003045 | 54 | 0 | 0.0 | 0.0 | 0.00 | 0.00 | 0.00 | 50 | 1012.7 |
| 20260504001549 | 56 | 0 | 0.0 | 0.0 | 0.00 | 0.00 | 0.00 | 44 | 1012.5 |
| 20260504000042 | 57 | 0 | 0.0 | 3.0 | 0.00 | 0.00 | 0.00 | 41 | 1012.5 |
| 20260503234549 | 58 | 227 | 0.0 | 6.0 | 0.00 | 0.00 | 0.00 | 40 | 1012.4 |
| 20260503233046 | 58 | 321 | 2.0 | 6.0 | 0.00 | 0.00 | 0.00 | 38 | 1012.2 |
| 20260503231549 | 59 | 238 | 2.0 | 10.0 | 0.00 | 0.00 | 0.00 | 37 | 1012.2 |
| 20260503230045 | 59 | 294 | 2.0 | 13.0 | 0.00 | 0.00 | 0.00 | 37 | 1012.2 |
| 20260503224541 | 59 | 222 | 2.0 | 11.0 | 0.00 | 0.00 | 0.00 | 35 | 1012.2 |
| 20260503223046 | 60 | 178 | 2.0 | 13.0 | 0.00 | 0.00 | 0.00 | 36 | 1012.1 |
| 20260503221559 | 60 | 246 | 5.0 | 15.0 | 0.00 | 0.00 | 0.00 | 35 | 1012.2 |
| 20260503220055 | 60 | 338 | 4.0 | 14.0 | 0.00 | 0.00 | 0.00 | 34 | 1012.2 |
| 20260503214547 | 61 | 257 | 1.0 | 16.0 | 0.00 | 0.00 | 0.00 | 34 | 1012.1 |
| 20260503213050 | 61 | 281 | 3.0 | 13.0 | 0.00 | 0.00 | 0.00 | 35 | 1012.0 |
| 20260503211552 | 61 | 270 | 6.0 | 15.0 | 0.00 | 0.00 | 0.00 | 34 | 1011.9 |
| 20260503210050 | 61 | 288 | 4.0 | 13.0 | 0.00 | 0.00 | 0.00 | 35 | 1012.1 |
| 20260503204609 | 61 | 338 | 4.0 | 16.0 | 0.00 | 0.00 | 0.00 | 34 | 1012.2 |
| 20260503203049 | 62 | 282 | 7.0 | 17.0 | 0.00 | 0.00 | 0.00 | 33 | 1012.4 |
| 20260503201549 | 62 | 301 | 7.0 | 20.0 | 0.00 | 0.00 | 0.00 | 35 | 1012.4 |
| 20260503200050 | 61 | 240 | 7.0 | 15.0 | 0.00 | 0.00 | 0.00 | 35 | 1012.6 |
| 20260503194547 | 62 | 245 | 4.0 | 16.0 | 0.00 | 0.00 | 0.00 | 35 | 1012.5 |
| 20260503193048 | 61 | 265 | 5.0 | 14.0 | 0.00 | 0.00 | 0.00 | 35 | 1012.7 |
| 20260503191606 | 61 | 234 | 6.0 | 16.0 | 0.00 | 0.00 | 0.00 | 36 | 1012.9 |
| 20260503190042 | 61 | 246 | 4.0 | 16.0 | 0.00 | 0.00 | 0.00 | 34 | 1012.8 |
| 20260503184550 | 62 | 45 | 4.0 | 14.0 | 0.00 | 0.00 | 0.00 | 32 | 1012.9 |
| 20260503183046 | 63 | 242 | 3.0 | 11.0 | 0.00 | 0.00 | 0.00 | 34 | 1013.2 |
| 20260503181552 | 62 | 340 | 5.0 | 13.0 | 0.00 | 0.00 | 0.00 | 33 | 1013.2 |
| 20260503180055 | 62 | 253 | 3.0 | 15.0 | 0.00 | 0.00 | 0.00 | 39 | 1013.2 |
| 20260503174552 | 60 | 352 | 5.0 | 18.0 | 0.00 | 0.00 | 0.00 | 39 | 1013.4 |
| 20260503173044 | 60 | 342 | 3.0 | 15.0 | 0.00 | 0.00 | 0.00 | 41 | 1013.5 |
| 20260503171550 | 60 | 9 | 5.0 | 12.0 | 0.00 | 0.00 | 0.00 | 39 | 1013.6 |